Regional Weather Roundup
Issued by NWS

Home | Current Version | Previous Version | Graphics & Text | Print | Product List | Glossary On
Versions: 1 2 3 4 5 6 7 8 9 10 11 12 13 14 15 16 17 18 19 20 21 22 23 24 25 26 27 28 29 30 31 32 33 34 35 36 37 38 39 40 41 42 43 44 45 46 47 48 49 50
000
ASUS43 KOAX 221810
RWRNE

WEATHER ROUNDUP FOR NEBRASKA
NATIONAL WEATHER SERVICE OMAHA NE
1200 PM CST THU FEB 22 2018

NOTES: SATELLITE DATA IS BEING USED TO AUGMENT CLOUD COVER ABOVE
       12000 FEET.
       "FAIR" INDICATES FEW OR NO CLOUDS BELOW 12,000 FEET WITH NO
       SIGNIFICANT WEATHER AND/OR OBSTRUCTIONS TO VISIBILITY.


NEZ001>004-019>022-054>056-221900-
NEBRASKA PANHANDLE

CITY           SKY/WX    TMP DP  RH WIND       PRES   REMARKS
SCOTTSBLUFF    LGT SNOW  20  17  88 SE9       30.06F VSB 1   WCI   9
6HR MIN TEMP:   5; 6HR MAX TEMP:  20; 6HR PCP:  0.01;

ALLIANCE       LGT SNOW  19  16  88 S12       30.06F FOG     WCI   7
6HR MIN TEMP:   2; 6HR MAX TEMP:  20; 6HR PCP: TRACE;

CHADRON        CLOUDY    18   9  68 NW3       30.11F
6HR MIN TEMP:  10; 6HR MAX TEMP:  18;

GORDON         LGT SNOW  21  16  80 SW6       30.10F WCI  14
6HR MIN TEMP:   1; 6HR MAX TEMP:  21;

KIMBALL        LGT SNOW  18  13  79 SE8       30.00F WCI   8
SIDNEY         CLOUDY    21  10  62 S8        30.05F WCI  11
6HR MIN TEMP:  16; 6HR MAX TEMP:  22; 6HR PCP: TRACE;

$$

NEZ057>060-069>072-079>082-221900-
SOUTHWEST NEBRASKA

CITY           SKY/WX    TMP DP  RH WIND       PRES   REMARKS
NORTH PLATTE   LGT SNOW  22  16  78 SE5       30.18F WCI  16
6HR MIN TEMP:  20; 6HR MAX TEMP:  22; 6HR PCP:  0.05;

IMPERIAL       CLOUDY    23  14  68 SE6       30.11F WCI  16
6HR MIN TEMP:  18; 6HR MAX TEMP:  24; 6HR PCP: TRACE;

LEXINGTON      CLOUDY    23  19  84 S3        30.21F FOG
MCCOOK         LGT SNOW  22  20  92 E5        30.14F VSB 1   WCI  16
6HR MIN TEMP:  21; 6HR MAX TEMP:  22; 6HR PCP: TRACE;

OGALLALA       SNOW      21  18  87 SE7       30.13F VSB 1/4 WCI  12
$$

NEZ005>010-023>029-035>040-094-221900-
NORTH CENTRAL NEBRASKA

CITY           SKY/WX    TMP DP  RH WIND       PRES   REMARKS
VALENTINE      LGT SNOW  23  18  81 S8        30.20F VSB 1   WCI  14
6HR MIN TEMP:  11; 6HR MAX TEMP:  23; 6HR PCP:  0.04;

AINSWORTH      LGT SNOW  21  19  93 SE7       30.22F VSB 3/4 WCI  12
BROKEN BOW     LGT SNOW  22  18  85 SE3       30.22F FOG
6HR MIN TEMP:  20; 6HR MAX TEMP:  22; 6HR PCP:  0.03;

O`NEILL        LGT SNOW  22  21  93 E6        30.28F VSB 1   WCI  15
ORD            CLOUDY    22  18  85 SE5       30.24F FOG     WCI  16
6HR MIN TEMP:  19; 6HR MAX TEMP:  22; 6HR PCP:  0.01;

THEDFORD         N/A     22  18  83 SE6       30.18F WCI  15
$$

NEZ041-046>049-061>064-073>077-083>087-221900-
SOUTH CENTRAL NEBRASKA

CITY           SKY/WX    TMP DP  RH WIND       PRES   REMARKS
GRAND ISLAND   CLOUDY    24  19  81 E5        30.27F WCI  18
6HR MIN TEMP:  20; 6HR MAX TEMP:  24;

AURORA         CLOUDY    24  20  88 E6        30.26F WCI  16
HASTINGS       CLOUDY    24  19  81 SE6       30.25F WCI  17
6HR MIN TEMP:  20; 6HR MAX TEMP:  24;

HEBRON         CLOUDY    27  24  89 E7        30.29F WCI  19
HOLDREGE       CLOUDY    23  21  91 CALM      30.21F
KEARNEY        CLOUDY    24  21  88 E5        30.24F WCI  18
YORK           MOSUNNY   25  25 100 E6        30.29F WCI  18
$$

NEZ011>018-030>034-042>045-221900-
NORTHEAST NEBRASKA

CITY           SKY/WX    TMP DP  RH WIND       PRES   REMARKS
NORFOLK        CLOUDY    24  20  84 SE10      30.30F WCI  14
6HR MIN TEMP:  20; 6HR MAX TEMP:  24;

ALBION         CLOUDY    24  20  87 S5        30.29F WCI  18
BLAIR          LGT SNOW  28  25  89 E6        30.32F WCI  21
COLUMBUS       CLOUDY    25  21  85 E7        30.32F WCI  17
FREMONT        CLOUDY    26  24  90 E7        30.33F FOG     WCI  19
TEKAMAH        LGT SNOW  26  24  92 E5        30.35F FOG     WCI  20
6HR MIN TEMP:  21; 6HR MAX TEMP:  26; 6HR PCP: TRACE;

WAYNE          CLOUDY    25  24  95 SE10      30.34F WCI  15
$$

NEZ050>053-065>068-078-088>093-221900-
SOUTHEAST NEBRASKA

CITY           SKY/WX    TMP DP  RH WIND       PRES   REMARKS
LINCOLN        CLOUDY    26  23  88 SE5       30.34F WCI  20
6HR MIN TEMP:  22; 6HR MAX TEMP:  26; 6HR PCP: TRACE;

OMAHA EPPLEY   CLOUDY    27  23  85 E7        30.36F WCI  19
6HR MIN TEMP:  23; 6HR MAX TEMP:  27; 6HR PCP:  0.04;

BEATRICE       CLOUDY    29  27  91 E5        30.32S WCI  24
FALLS CITY     CLOUDY    29  27  92 E8        30.34F FOG     WCI  21
6HR MIN TEMP:  25; 6HR MAX TEMP:  29; 6HR PCP:  0.01;

NEBRASKA CITY  CLOUDY    29  29 100 SE7       30.33F FOG     WCI  22
PLATTSMOUTH    CLOUDY    28  26  93 E10       30.32F WCI  18
$$

NEZ044-045-051>053-067-221900-
OMAHA AREA

CITY           SKY/WX    TMP DP  RH WIND       PRES   REMARKS
OMAHA EPPLEY   CLOUDY    27  23  85 E7        30.36F WCI  19
6HR MIN TEMP:  23; 6HR MAX TEMP:  27; 6HR PCP:  0.04;

BLAIR          LGT SNOW  28  25  89 E6        30.32F WCI  21
FREMONT        CLOUDY    26  24  90 E7        30.33F FOG     WCI  19
MILLARD        CLOUDY    29  24  82 E6        30.34F WCI  23
OFFUTT AFB     CLOUDY    28  24  85 E8        30.33F WCI  20
PLATTSMOUTH    CLOUDY    28  26  93 E10       30.32F WCI  18
WAHOO          CLOUDY    26  24  89 SE7       30.33F WCI  19
$$



USA.gov is the U.S. government's official web portal to all federal, state and local government web resources and services.